Location: Hac?musa Deresi
(39.1694°N, 32.2508°E)
Time: 11:52:40
(UTC+00:00)

ADEOS Rocket - Pass Details

Date: 22 April 2026
Orbit: 859 x 1304 km, 98.8° (Epoch: 21 May)

Event Time Altitude Azimuth Distance (km) Brightness Sun altitude
Rises 23:40:17 0° 15° (NNE) 4,218 7.3 -32.3°
Reaches altitude 10° 23:42:57 10° 17° (NNE) 3,280 6.5 -32.0°
Maximum altitude 23:50:39 72° 102° (ESE) 1,361 3.6 -31.1°
Enters shadow 23:52:01 61° 158° (SSE) 1,462 3.6 -31.0°
